Orbital Elements at Epoch 2459000.5 (2020-May-31.0) TDB
Reference: JPL 10 (heliocentric ecliptic J2000)
Element | Value | Uncertainty (1-sigma) | Units |
e | .1978356502209045 | 1.0532e-07 | |
a | 2.163912410801618 | 3.4796e-08 | au |
q | 1.735813391989595 | 2.53e-07 | au |
i | 4.930260758811341 | 4.5888e-06 | deg |
node | 65.26728088411222 | 6.644e-05 | deg |
peri | 291.2033063371064 | 7.1503e-05 | deg |
M | 270.6465244205648 | 3.7702e-05 | deg |
tp | 2459289.080440921911 (2021-Mar-15.58044092) | 0.00012837 | TDB |
period | 1162.673953734801 3.18 | 2.8044e-05 7.678e-08 | d yr |
n | .3096310868955046 | 7.4684e-09 | deg/d |
Q | 2.592011429613641 | 4.168e-08 | au |
|
| | Orbit Determination Parameters
Additional Information
|